Wichita, KS

11:31 AM CST on December 05, 2019 (GMT -0600)
Wichita Eisenhower National Airport

Weather History for KICT - November, 2019

Change the Weather History Date:

Tuesday, November 19, 2019

  Actual Average Record
Temperature  
Mean Temperature 51 °F 44 °F  
Max Temperature 70 °F 54 °F 79 °F (2007)
Min Temperature 32 °F 33 °F 10 °F (1937)
Degree Days  
Heating Degree Days 14 21  
Month to date heating degree days 405 321  
Since 1 July heating degree days 752 607  
Cooling Degree Days 0 0  
Month to date cooling degree days 0 0  
Year to date cooling degree days 1881 1684  
Growing Degree Days 1 (Base 50)    
Moisture  
Dew Point 32 °F    
Average Humidity 51    
Maximum Humidity 75    
Minimum Humidity 26    
Precipitation  
Precipitation 0.00 in 0.03 in 1.30 in (1994)
Month to date precipitation 0.01 0.97  
Year to date precipitation 39.70 30.98  
Snow  
Snow 0.00 in 0.00 in 6.10 in (1906)
Month to date snowfall T 0.4  
Since 1 July snowfall 0.4 0.5  
Since 1 September snowfall 0.4 0.5  
Snow Depth 0.00 in    
Sea Level Pressure  
Sea Level Pressure 29.89 in    
Wind  
Wind Speed 9 mph (SE)    
Max Wind Speed 20 mph    
Max Gust Speed 26 mph    
Visibility 10 miles    
Events      
T = Trace of Precipitation, MM = Missing Value Source: NWS Daily Summary

Daily Weather History Graph

Daily Weather History Graph

Search for Another Location

Airport or City:

Astronomy

Nov. 19, 2019 Rise Set
Actual Time 7:13 AM CST 5:16 PM CST
Civil Twilight 6:45 AM CST 5:44 PM CST
Nautical Twilight 6:13 AM CST 6:16 PM CST
Astronomical Twilight 5:42 AM CST 6:47 PM CST
Moon No Moon Rise 1:25 PM CST (11/19)
Length of Visible Light 10h 58m
Length of Day
10h 02m
Waning Gibbous, 51% of the Moon is Illuminated
Nov 19
Waning Gibbous
Nov 19
Last Quarter
Nov 26
New
Dec 4
First Quarter
Dec 11
Full

Hourly Weather History & Observations

Time (CST) Temp. Windchill Dew Point Humidity Pressure Visibility Wind Dir Wind Speed Gust Speed Precip Events Conditions
12:53 AM 46.9 °F - 32.0 °F 56% 29.89 in 10.0 mi NNW 8.1 mph - N/A   Clear
1:53 AM 46.9 °F - 30.9 °F 54% 29.88 in 10.0 mi NNW 5.8 mph - N/A   Clear
2:53 AM 42.1 °F 38.4 °F 28.9 °F 60% 29.90 in 10.0 mi WNW 5.8 mph - N/A   Clear
3:53 AM 43.0 °F 39.5 °F 28.9 °F 58% 29.89 in 10.0 mi North 5.8 mph - N/A   Clear
4:53 AM 39.0 °F 34.8 °F 28.9 °F 67% 29.91 in 10.0 mi NNW 5.8 mph - N/A   Clear
5:53 AM 42.1 °F - 28.0 °F 58% 29.92 in 10.0 mi Calm Calm - N/A   Clear
6:53 AM 34.0 °F - 26.1 °F 73% 29.95 in 10.0 mi Calm Calm - N/A   Partly Cloudy
7:53 AM 39.9 °F 36.7 °F 28.9 °F 65% 29.96 in 10.0 mi NE 4.6 mph - N/A   Partly Cloudy
8:53 AM 48.9 °F - 32.0 °F 52% 29.98 in 10.0 mi Calm Calm - N/A   Scattered Clouds
10:53 AM 59.0 °F - 36.0 °F 42% 29.98 in 10.0 mi SSE 10.4 mph - N/A   Scattered Clouds
11:53 AM 62.1 °F - 36.0 °F 38% 29.93 in 10.0 mi SSE 11.5 mph - N/A   Partly Cloudy
12:53 PM 66.0 °F - 34.0 °F 30% 29.89 in 10.0 mi SSE 13.8 mph - N/A   Partly Cloudy
1:53 PM 68.0 °F - 32.0 °F 26% 29.86 in 10.0 mi SSE 13.8 mph - N/A   Partly Cloudy
2:53 PM 70.0 °F - 34.0 °F 27% 29.84 in 10.0 mi SSE 12.7 mph - N/A   Partly Cloudy
3:53 PM 69.1 °F - 33.1 °F 26% 29.83 in 10.0 mi SE 12.7 mph - N/A   Mostly Cloudy
4:53 PM 64.0 °F - 33.1 °F 31% 29.84 in 10.0 mi SE 10.4 mph - N/A   Mostly Cloudy
5:53 PM 61.0 °F - 33.1 °F 35% 29.84 in 10.0 mi SE 10.4 mph - N/A   Mostly Cloudy
7:53 PM 57.9 °F - 33.1 °F 39% 29.85 in 10.0 mi SE 17.3 mph - N/A   Scattered Clouds
8:53 PM 57.9 °F - 34.0 °F 41% 29.84 in 10.0 mi SE 16.1 mph - N/A   Partly Cloudy
9:53 PM 57.9 °F - 34.0 °F 41% 29.85 in 10.0 mi SE 17.3 mph 26.5 mph N/A   Partly Cloudy
10:53 PM 57.0 °F - 33.1 °F 40% 29.83 in 10.0 mi SE 13.8 mph - N/A   Partly Cloudy